Location: Unspecified
(43.8044°N, 11.0278°E)
Time: 02:25:55
(UTC+02:00)

Okean 3 - Visible Passes

Search period start: 31 August 2016 00:00
Search period end: 10 September 2016 00:00
Orbit: 577 x 604 km, 82.5° (Epoch: 30 August)

Date Brightness Start Highest point End Pass type
(mag) Time Alt. Az. Time Alt. Az. Time Alt. Az.
31 Aug 6.5 05:32:36 10° SE 05:35:24 17° E 05:38:12 10° NE visible
01 Sep 5.9 05:40:13 10° SE 05:43:43 25° E 05:47:12 10° NNE visible
02 Sep 5.1 05:48:10 10° SSE 05:52:05 37° E 05:55:59 10° NNE visible
03 Sep 4.2 05:56:19 10° S 06:00:28 57° E 06:04:37 10° NNE visible
04 Sep 3.5 06:04:40 10° S 06:08:54 88° ESE 06:13:07 10° N visible
05 Sep 6.6 04:39:16 10° ESE 04:40:40 11° E 04:42:04 10° ENE visible
06 Sep 6.3 04:46:11 10° SE 04:48:56 17° E 04:51:41 10° NE visible
07 Sep 5.7 04:53:48 10° SE 04:57:15 25° E 05:00:41 10° NE visible
08 Sep 4.9 05:01:42 10° SSE 05:05:35 37° E 05:09:28 10° NNE visible
09 Sep 4.1 05:09:52 10° S 05:13:59 57° E 05:18:06 10° NNE visible
